Weather History for Malaga, Spain

Change the Weather History Date:

Saturday, November 3, 2012

  Actual Average Record
Temperature  
Mean Temperature 63 °F -  
Max Temperature 66 °F 64 °F 83 °F (2013)
Min Temperature 60 °F 50 °F 50 °F (1996)
Degree Days  
Heating Degree Days 2    
Growing Degree Days 13 (Base 50)    
Moisture  
Dew Point 62 °F    
Average Humidity 98    
Maximum Humidity 100    
Minimum Humidity 88    
Precipitation  
Precipitation 0.08 in 0.15 in - ()
Sea Level Pressure  
Sea Level Pressure 29.93 in    
Wind  
Wind Speed 3 mph ()    
Max Wind Speed 9 mph    
Max Gust Speed -    
Visibility 3.8 miles    
Events Rain    
Averages and records for this station are not official NWS values.
T = Trace of Precipitation, MM = Missing Value Source: Averaged Metar Reports

Daily Weather History Graph

Daily Weather History Graph

Search for Another Location

Airport:

Trip Planner

Search our weather history database for the weather conditions in past years. The results will help you decide how hot, cold, wet, or windy it might be!

Date:

Astronomy

Nov. 03, 2012 Rise Set
Actual Time 7:43 AM CET 6:18 PM CET
Civil Twilight 7:16 AM CET 6:45 PM CET
Nautical Twilight 6:46 AM CET 7:16 PM CET
Astronomical Twilight 6:16 AM CET 7:46 PM CET
Moon 9:49 PM CET (11/3) 11:35 AM CET (11/3)
Length of Visible Light 11h 28m
Length of Day
10h 34m
Waning Gibbous, 82% of the Moon is Illuminated
Nov 3
Waning Gibbous
Nov 7
Last Quarter
Nov 13
New
Nov 20
First Quarter
Nov 28
Full

Hourly Weather History & Observations

Time (CET) Temp. Dew Point Humidity Pressure Visibility Wind Dir Wind Speed Gust Speed Precip Events Conditions
12:00 AM 59.0 °F 59.0 °F 100% 29.98 in 4.3 mi East 3.5 mph - N/A   Mostly Cloudy
12:30 AM 59.0 °F 59.0 °F 100% 29.98 in 4.3 mi East 4.6 mph - N/A   Mostly Cloudy
1:00 AM 60 °F 59 °F 95% 29.99 in 4 mi East 3.5 mph - -   Mist
1:00 AM 59.0 °F 59.0 °F 100% 29.98 in 4.3 mi East 3.5 mph - N/A   Mostly Cloudy
1:30 AM 59.0 °F 59.0 °F 100% 29.98 in 4.3 mi ESE 3.5 mph - N/A   Mostly Cloudy
1:43 AM 59.0 °F 59.0 °F 100% 29.98 in 2.5 mi SE 3.5 mph - N/A Rain Rain
2:00 AM 59.0 °F 59.0 °F 100% 29.95 in 4.3 mi SSE 3.5 mph - N/A Rain Light Rain
3:00 AM 59.0 °F 59.0 °F 100% 29.95 in 4.3 mi Variable 2.3 mph - N/A   Mostly Cloudy
3:30 AM 60.8 °F 59.0 °F 94% 29.95 in 4.3 mi Calm Calm - N/A Rain Rain
4:00 AM 60.8 °F 59.0 °F 94% 29.95 in 4.3 mi Calm Calm - N/A Rain Light Rain
4:30 AM 60.8 °F 59.0 °F 94% 29.95 in 6.2 mi Variable 1.2 mph - N/A   Mostly Cloudy
5:00 AM 60.8 °F 60.8 °F 100% 29.92 in 4.3 mi East 1.2 mph - N/A   Mostly Cloudy
5:30 AM 60.8 °F 60.8 °F 100% 29.92 in 4.3 mi Variable 1.2 mph - N/A   Mostly Cloudy
6:00 AM 60.8 °F 59.0 °F 94% 29.92 in 4.3 mi Variable 2.3 mph - N/A   Mostly Cloudy
6:11 AM 60.8 °F 60.8 °F 100% 29.92 in 3.1 mi Variable 2.3 mph - N/A Rain Rain
6:30 AM 60.8 °F 60.8 °F 100% 29.92 in 3.1 mi Variable 2.3 mph - N/A Rain Light Rain
7:00 AM 61 °F 60 °F 97% 29.92 in 3 mi SE 3.5 mph - -   Mist
7:00 AM 60.8 °F 60.8 °F 100% 29.92 in 3.1 mi SE 3.5 mph - N/A   Mostly Cloudy
7:30 AM 60.8 °F 60.8 °F 100% 29.92 in 3.1 mi SSE 6.9 mph - N/A   Mostly Cloudy
8:00 AM 60.8 °F 60.8 °F 100% 29.92 in 3.7 mi Variable 1.2 mph - N/A   Mostly Cloudy
8:30 AM 60.8 °F 60.8 °F 100% 29.92 in 3.7 mi Variable 2.3 mph - N/A   Mostly Cloudy
9:00 AM 60.8 °F 60.8 °F 100% 29.92 in 4.3 mi ESE 2.3 mph - N/A   Mostly Cloudy
9:30 AM 60.8 °F 60.8 °F 100% 29.92 in 4.3 mi SE 4.6 mph - N/A Rain Light Rain
10:00 AM 62.6 °F 62.6 °F 100% 29.95 in 4.3 mi South 4.6 mph - N/A Rain Light Rain
10:13 AM 62.6 °F 62.6 °F 100% 29.92 in 3.1 mi Variable 2.3 mph - N/A Rain Rain
10:30 AM 62.6 °F 60.8 °F 94% 29.92 in 5.0 mi SSE 5.8 mph - N/A Rain Light Rain
11:00 AM 62.6 °F 62.6 °F 100% 29.92 in 5.0 mi SE 6.9 mph - N/A Rain Light Rain
11:15 AM 62.6 °F 62.6 °F 100% 29.95 in 2.5 mi SE 4.6 mph - N/A Rain Light Rain
11:30 AM 62.6 °F 62.6 °F 100% 29.95 in 3.1 mi SE 5.8 mph - N/A Rain Light Rain
12:00 PM 62.6 °F 62.6 °F 100% 29.95 in 3.1 mi East 9.2 mph - N/A   Mostly Cloudy
12:30 PM 62.6 °F 62.6 °F 100% 29.95 in 3.1 mi ESE 8.1 mph - N/A Rain Light Rain
1:00 PM 64 °F 61 °F 88% 29.94 in 3 mi ESE 6.9 mph - -   Mist
1:00 PM 62.6 °F 62.6 °F 100% 29.92 in 3.1 mi ESE 6.9 mph - N/A   Mostly Cloudy
1:30 PM 62.6 °F 62.6 °F 100% 29.92 in 3.1 mi ESE 6.9 mph - N/A   Mostly Cloudy
2:00 PM 64.4 °F 62.6 °F 94% 29.92 in 4.3 mi East 8.1 mph - N/A   Mostly Cloudy
2:30 PM 64.4 °F 64.4 °F 100% 29.92 in 4.3 mi ESE 5.8 mph - N/A   Mostly Cloudy
3:00 PM 62.6 °F 62.6 °F 100% 29.89 in 4.3 mi ESE 5.8 mph - N/A   Mostly Cloudy
3:30 PM 64.4 °F 62.6 °F 94% 29.89 in 4.3 mi ESE 4.6 mph - N/A   Mostly Cloudy
3:36 PM 64.4 °F 62.6 °F 94% 29.89 in 2.5 mi ESE 5.8 mph - N/A Rain Light Rain
4:00 PM 64.4 °F 64.4 °F 100% 29.89 in 3.1 mi ESE 6.9 mph - N/A Rain Light Rain
4:30 PM 64.4 °F 62.6 °F 94% 29.89 in 3.1 mi ESE 5.8 mph - N/A Rain Light Rain
5:00 PM 64.4 °F 64.4 °F 100% 29.89 in 3.1 mi ESE 3.5 mph - N/A Rain Light Rain
5:30 PM 64.4 °F 64.4 °F 100% 29.89 in 3.1 mi ESE 3.5 mph - N/A   Mostly Cloudy
6:00 PM 64.4 °F 64.4 °F 100% 29.89 in 3.1 mi ESE 4.6 mph - N/A   Mostly Cloudy
6:30 PM 66.2 °F 64.4 °F 94% 29.89 in 3.1 mi East 3.5 mph - N/A   Mostly Cloudy
7:00 PM 66 °F 64 °F 90% 29.92 in 3 mi 1.2 mph - -   Mist
7:00 PM 66.2 °F 64.4 °F 94% 29.92 in 3.1 mi Variable 1.2 mph - N/A   Mostly Cloudy
7:30 PM 64.4 °F 64.4 °F 100% 29.92 in 3.1 mi Calm Calm - N/A   Mostly Cloudy
8:00 PM 64.4 °F 64.4 °F 100% 29.89 in 3.1 mi Calm Calm - N/A   Mostly Cloudy
8:30 PM 64.4 °F 64.4 °F 100% 29.92 in 4.3 mi Calm Calm - N/A   Scattered Clouds
9:00 PM 64.4 °F 64.4 °F 100% 29.92 in 4.3 mi Calm Calm - N/A   Scattered Clouds
9:30 PM 64.4 °F 64.4 °F 100% 29.92 in 4.3 mi Calm Calm - N/A   Scattered Clouds
10:00 PM 64.4 °F 64.4 °F 100% 29.92 in 4.3 mi Calm Calm - N/A   Scattered Clouds
10:30 PM 64.4 °F 64.4 °F 100% 29.92 in 4.3 mi Calm Calm - N/A   Scattered Clouds
11:00 PM 64.4 °F 64.4 °F 100% 29.92 in 4.3 mi Calm Calm - N/A   Scattered Clouds
11:30 PM 64.4 °F 64.4 °F 100% 29.92 in 4.3 mi NNW 3.5 mph - N/A   Scattered Clouds